Home   Weather   Porta Westfalica   Past weeks

Flag for Germany Past Weather in Porta Westfalica, North Rhine-Westphalia, Germany — Yesterday and Last 2 Weeks

Now
27 °F

Chilly.


Feels Like: 27 °F
Forecast: 24 / 31 °F
Wind: 1 mph from North

Location: Bueckeburg

Current Time: Jan 21, 2017 at 10:51:46 pm

Latest Report: Jan 21, 2017 at 9:20 pm


Visibility: N/A

Pressure: 30.39 "Hg

Humidity: 93%

Dew Point: 25 °F

Location of Porta WestfalicaLocation

Past Weather in Porta Westfalica — Graph

°F

Porta Westfalica Temperature Yesterday

Maximum temperature yesterday: 37 °F (at 3:20 pm)
Minimum temperature yesterday: 25 °F (at 8:20 pm)
Average temperature yesterday: 30 °F

High & Low Weather Summary for the Past Weeks

 TemperatureHumidityPressure
High43 °F (Jan 11, 2:07 pm)100% (Jan 7, 5:20 pm)30.74 "Hg (Jan 7, 5:20 pm)
Low23 °F (Jan 6, 9:20 pm)52% (Jan 19, 2:20 pm)28.91 "Hg (Jan 13, 4:20 am)
Average32 °F88%30.14 "Hg
* Reported Jan 6 9:20 pm — Jan 21 9:20 pm, Porta Westfalica, Weather by CustomWeather, © 2017

Note: Actual official high and low records may vary slightly from our data, if they occured in-between our weather recording intervals... More about our weather records

Advertising

Porta Westfalica Weather History for the Previous 24 Hours

Scroll right to see more
 ConditionsComfort  
Time TempWeatherWind HumidityBarometerVisibility
9:20 pm
Sat, Jan 21
27 °FChilly.1 mph93%30.39 "HgN/A
8:20 pm30 °FChilly.2 mph86%30.42 "HgN/A
7:20 pm28 °FChilly.2 mph93%30.42 "HgN/A
6:20 pm34 °FChilly.2 mph81%30.42 "HgN/A
5:20 pm34 °FChilly.7 mph81%30.42 "HgN/A
4:20 pm37 °FChilly.7 mph70%30.42 "HgN/A
3:20 pm39 °FChilly.6 mph65%30.42 "HgN/A
2:20 pm39 °FChilly.6 mph65%30.42 "HgN/A
1:20 pm39 °FChilly.7 mph70%30.45 "HgN/A
12:20 pm37 °FChilly.2 mph75%30.45 "HgN/A
11:20 am36 °FChilly.1 mph75%30.48 "HgN/A
10:20 am30 °FChilly.1 mph86%30.48 "HgN/A
9:20 am25 °FCold.1 mph93%30.48 "HgN/A
8:20 am25 °FCold.2 mph93%30.48 "HgN/A
7:20 am25 °FCold.1 mph93%30.48 "HgN/A
6:20 am27 °FChilly.2 mph93%30.48 "HgN/A
5:20 am27 °FChilly.2 mph93%30.48 "HgN/A
4:20 am27 °FChilly.2 mph93%30.48 "HgN/A
3:20 am30 °FChilly.No wind93%30.51 "HgN/A
2:20 am30 °FChilly.No wind93%30.51 "HgN/A
1:20 am32 °FChilly.1 mph87%30.51 "HgN/A
12:20 am30 °FChilly.No wind93%30.54 "HgN/A
11:20 pm
Fri, Jan 20
30 °FChilly.2 mph86%30.54 "HgN/A
10:20 pm28 °FChilly.5 mph93%30.54 "HgN/A
Weather by CustomWeather, © 2017

See weather overviewHow to use our weather pages